Regional Weather Roundup
Issued by NWS

Home | Current Version | Previous Version | Graphics & Text | Print | Product List | Glossary On
Versions: 1 2 3 4 5 6 7 8 9 10 11 12 13 14 15 16 17 18 19 20 21 22 23 24 25 26 27 28 29 30 31 32 33 34 35 36 37 38 39 40 41 42 43 44 45 46 47 48 49 50
000
ASUS43 KBIS 012210
RWRND

NORTH DAKOTA REGIONAL WEATHER ROUNDUP
NATIONAL WEATHER SERVICE BISMARCK ND
500 PM CDT WED OCT 01 2014

NOTE: "FAIR" INDICATES FEW OR NO CLOUDS BELOW 12,000 FEET WITH NO
SIGNIFICANT WEATHER AND/OR OBSTRUCTIONS TO VISIBILITY.


NDZ001>003-009>011-017-012300-
NORTHWEST NORTH DAKOTA

CITY           SKY/WX    TMP DP  RH WIND       PRES   REMARKS
WILLISTON      CLOUDY    57  44  62 NW18G25   29.78R
MINOT          CLOUDY    58  48  69 W17G25    29.69R
MINOT AFB      CLOUDY    56  51  82 W21G31    29.68R
$$

NDZ018>021-031>035-040>046-012300-
SOUTHWEST NORTH DAKOTA

CITY           SKY/WX    TMP DP  RH WIND       PRES   REMARKS
BISMARCK       CLOUDY    60  49  66 W15G26    29.76R
DICKINSON      CLOUDY    55  46  71 W12       29.79S
GARRISON         N/A     60  48  64 W16G25    29.73R
HETTINGER ARPT PTSUNNY   53  46  77 W16G22    29.84R
$$

NDZ004>008-012>016-024-026-027-054-012300-
NORTHEAST NORTH DAKOTA

CITY           SKY/WX    TMP DP  RH WIND       PRES   REMARKS
GRAND FORKS    CLOUDY    64  54  69 SW17G23   29.62R
GRND FRKS AFB  CLOUDY    62  57  82 SW12      29.63R
DEVILS LAKE    PTSUNNY   61  46  59 W15       29.62R
$$

NDZ022-023-025-028>030-036>039-047>053-012300-
SOUTHEAST NORTH DAKOTA

CITY           SKY/WX    TMP DP  RH WIND       PRES   REMARKS
FARGO          CLOUDY    66  50  56 W16       29.67R
JAMESTOWN      CLOUDY    60  49  66 W14       29.70R
$$




USA.gov is the U.S. government's official web portal to all federal, state and local government web resources and services.